Lawrenceville, GA

6:45 AM EST on December 07, 2019 (GMT -0500)
Gwinnett County-Briscoe

Weather History for KLZU - September, 2019

Change the Weather History Date:

Sunday, September 22, 2019

  Actual Average (KWDR) Record (KWDR)
Temperature  
Mean Temperature 72 °F -  
Max Temperature 86 °F 80 °F 90 °F (1961)
Min Temperature 57 °F 59 °F -43 °F (2013)
Cooling Degree Days 6    
Growing Degree Days 22 (Base 50)    
Moisture  
Dew Point 59 °F    
Average Humidity 73    
Maximum Humidity 100    
Minimum Humidity 37    
Precipitation  
Precipitation 0.00 in - - ()
Sea Level Pressure  
Sea Level Pressure 30.22 in    
Wind  
Wind Speed 1 mph (ESE)    
Max Wind Speed 8 mph    
Max Gust Speed -    
Visibility 10 miles    
Events      
Averages and records for this station are not official NWS values.
T = Trace of Precipitation, MM = Missing Value Source: NWS Daily Summary

Daily Weather History Graph

Daily Weather History Graph

Search for Another Location

Airport or City:

Astronomy

Sep. 22, 2019 Rise Set
Actual Time 7:23 AM EDT 7:32 PM EDT
Civil Twilight 6:58 AM EDT 7:57 PM EDT
Nautical Twilight 6:29 AM EDT 8:26 PM EDT
Astronomical Twilight 6:00 AM EDT 8:56 PM EDT
Moon 12:28 AM EDT (9/22) 3:10 PM EDT (9/22)
Length of Visible Light 12h 58m
Length of Day
12h 09m
Last Quarter, 44% of the Moon is Illuminated
Sep 22
Last Quarter
Sep 28
New
Oct 5
First Quarter
Oct 13
Full
Oct 21
Last Quarter

Hourly Weather History & Observations

Time (EDT) Temp. Heat Index Dew Point Humidity Pressure Visibility Wind Dir Wind Speed Gust Speed Precip Events Conditions
12:56 AM 62.1 °F - 61.0 °F 96% 30.26 in 10.0 mi Calm Calm - N/A   Clear
1:56 AM 61.0 °F - 60.1 °F 97% 30.24 in 10.0 mi Calm Calm - N/A   Clear
2:56 AM 61.0 °F - 60.1 °F 97% 30.25 in 10.0 mi Calm Calm - N/A   Clear
3:56 AM 59.0 °F - 59.0 °F 100% 30.24 in 10.0 mi Calm Calm - N/A   Clear
4:56 AM 57.9 °F - 57.9 °F 100% 30.24 in 10.0 mi Calm Calm - N/A   Clear
5:56 AM 57.9 °F - 57.9 °F 100% 30.24 in 10.0 mi Calm Calm - N/A   Clear
6:56 AM 57.0 °F - 57.0 °F 100% 30.26 in 10.0 mi Calm Calm - N/A   Clear
7:56 AM 57.9 °F - 57.0 °F 97% 30.27 in 10.0 mi Calm Calm - N/A   Clear
8:56 AM 66.0 °F - 62.1 °F 87% 30.29 in 10.0 mi Calm Calm - N/A   Clear
9:56 AM 72.0 °F - 63.0 °F 73% 30.30 in 10.0 mi Calm Calm - N/A   Clear
10:56 AM 75.9 °F - 62.1 °F 62% 30.29 in 10.0 mi SW 5.8 mph - N/A   Clear
11:56 AM 79.0 °F - 62.1 °F 56% 30.27 in 10.0 mi WSW 3.5 mph - N/A   Clear
12:56 PM 82.0 °F 82.0 °F 57.9 °F 44% 30.24 in 10.0 mi Calm Calm - N/A   Scattered Clouds
1:56 PM 82.9 °F 82.4 °F 57.0 °F 41% 30.21 in 10.0 mi Variable 5.8 mph - N/A   Clear
2:56 PM 84.0 °F 82.9 °F 55.0 °F 37% 30.18 in 10.0 mi Variable 5.8 mph - N/A   Clear
3:56 PM 84.9 °F 83.7 °F 55.9 °F 37% 30.16 in 10.0 mi Calm Calm - N/A   Clear
4:56 PM 86.0 °F 85.0 °F 57.9 °F 38% 30.15 in 10.0 mi East 8.1 mph - N/A   Clear
5:56 PM 84.0 °F 83.5 °F 57.9 °F 41% 30.15 in 10.0 mi East 6.9 mph - N/A   Clear
6:56 PM 81.0 °F 81.3 °F 59.0 °F 47% 30.14 in 10.0 mi East 6.9 mph - N/A   Clear
7:56 PM 75.9 °F - 60.1 °F 58% 30.16 in 10.0 mi East 4.6 mph - N/A   Clear
8:56 PM 69.1 °F - 61.0 °F 75% 30.16 in 10.0 mi Calm Calm - N/A   Clear
9:56 PM 66.0 °F - 62.1 °F 87% 30.17 in 10.0 mi Calm Calm - N/A   Clear
10:56 PM 64.0 °F - 62.1 °F 93% 30.17 in 10.0 mi Calm Calm - N/A   Clear
11:56 PM 63.0 °F - 61.0 °F 93% 30.16 in 10.0 mi Calm Calm - N/A   Clear